Tacoma Narrows, WA
on Friday, November 9, 2012

Friday
Previous Day Next Day
Daily Summary
 ActualAverageRecord
Temperature
Mean Temperature °F °F  
Max Temperature 45°F 50°F 64°F (1997)
Min Temperature 35°F 41°F 35°F (2012)
Degree Days
Heating Degree Days 25    
Moisture
Dew Point 34°F   
Average Humidity 84    
Maximum Humidity 100    
Minimum Humidity 53    
Precipitation
Precipitation 0.00 in in in ()
Wind
Wind Speed 1 mph   
Max Wind Speed 8 mph   
Max Gust Speed mph   
Visibility 6 miles   
Events Fog   
Averages and records for this station are not official NWS values.
Key: T is trace of precipitation, MM is missing value
Source: NWS Daily Summary
Seasonal Weather Averages
Time(PST)TemperatureDew PointHumidity Pressure Visibility Wind DirectionWind SpeedGust SpeedPrecipitationEvents Conditions
12:53 AM 37.9°F 33.1°F 83% 29.86 in 10.0 miles Calm Calm - N/A   Clear
1:41 AM 37.4°F 33.8°F 87% 29.85 in 10.0 miles Calm Calm - N/A   Scattered Clouds
1:49 AM 37.4°F 35.6°F 93% 29.86 in 10.0 miles Calm Calm - N/A   Mostly Cloudy
1:53 AM 37.9°F 35.1°F 89% 29.86 in 10.0 miles Calm Calm - N/A   Mostly Cloudy
2:12 AM 39.2°F 35.6°F 87% 29.86 in 10.0 miles Calm Calm - N/A   Scattered Clouds
2:53 AM 37.9°F 35.1°F 89% 29.87 in 8.0 miles Calm Calm - N/A   Clear
3:08 AM 35.6°F 33.8°F 93% 29.86 in 1.8 miles Calm Calm - N/A   Partly Cloudy
3:20 AM 35.6°F 33.8°F 93% 29.86 in 3.0 miles Calm Calm - N/A   Scattered Clouds
3:29 AM 37.4°F 35.6°F 93% 29.86 in 7.0 miles Calm Calm - N/A   Mostly Cloudy
3:41 AM 37.4°F 35.6°F 93% 29.86 in 1.8 miles Calm Calm - N/A   Overcast
3:53 AM 37.0°F 35.1°F 93% 29.87 in 0.5 miles Calm Calm - N/A Fog Fog
4:21 AM 39.2°F 37.4°F 93% 29.87 in 2.0 miles Calm Calm - N/A   Overcast
4:29 AM 39.2°F 37.4°F 93% 29.87 in 3.0 miles Calm Calm - N/A   Overcast
4:53 AM 39.0°F 37.0°F 93% 29.88 in 4.0 miles Calm Calm - N/A   Overcast
5:39 AM 39.2°F 37.4°F 93% 29.88 in 1.8 miles Calm Calm - N/A   Overcast
5:44 AM 39.2°F 37.4°F 93% 29.88 in 3.0 miles Calm Calm - N/A   Overcast
5:53 AM 39.0°F 37.0°F 93% 29.88 in 2.5 miles Variable 3.5 mph - N/A   Overcast
6:01 AM 39.2°F 37.4°F 93% 29.87 in 0.8 miles West 4.6 mph - N/A   Overcast
6:35 AM 37.4°F 37.4°F 100% 29.88 in 2.0 miles Calm Calm - N/A   Overcast
6:43 AM 37.4°F 35.6°F 93% 29.88 in 4.0 miles SSW 3.5 mph - N/A   Overcast
6:53 AM 37.9°F 37.0°F 97% 29.89 in 5.0 miles Calm Calm - N/A   Overcast
7:53 AM 37.9°F 37.0°F 97% 29.90 in 5.0 miles Calm Calm - N/A   Overcast
8:10 AM 37.4°F 35.6°F 93% 29.90 in 0.5 miles Calm Calm - N/A Fog Fog
8:28 AM 37.4°F 37.4°F 100% 29.90 in 0.2 miles Calm Calm - N/A Fog Fog
8:48 AM 37.4°F 37.4°F 100% 29.90 in 0.5 miles Calm Calm - N/A Fog Fog
8:53 AM 37.9°F 37.0°F 97% 29.91 in 0.8 miles Calm Calm - N/A   Mist
9:18 AM 37.4°F 37.4°F 100% 29.90 in 0.8 miles Calm Calm - N/A   Overcast
9:26 AM 37.4°F 37.4°F 100% 29.90 in 1.0 miles Calm Calm - N/A   Mostly Cloudy
9:51 AM 39.2°F 37.4°F 93% 29.90 in 3.0 miles Calm Calm - N/A   Overcast
9:53 AM 39.9°F 37.9°F 93% 29.91 in 3.0 miles Calm Calm - N/A   Overcast
10:09 AM 41.0°F 37.4°F 87% 29.90 in 10.0 miles SSW 3.5 mph - N/A   Mostly Cloudy
10:37 AM 42.8°F 35.6°F 76% 29.91 in 10.0 miles Calm Calm - N/A   Scattered Clouds
10:53 AM 42.1°F 36.0°F 79% 29.91 in 10.0 miles Calm Calm - N/A   Partly Cloudy
11:15 AM 44.6°F 35.6°F 71% 29.90 in 10.0 miles NNW 4.6 mph - N/A   Mostly Cloudy
11:25 AM 44.6°F 35.6°F 71% 29.90 in - Calm Calm - N/A   Mostly Cloudy
11:53 AM 43.0°F 33.1°F 68% 29.91 in 10.0 miles NNE 3.5 mph - N/A   Scattered Clouds
12:53 PM 45.0°F 33.1°F 63% 29.90 in 10.0 miles Calm Calm - N/A   Partly Cloudy
1:53 PM 45.0°F 33.1°F 63% 29.89 in 10.0 miles Calm Calm - N/A   Mostly Cloudy
2:53 PM 45.0°F 30.0°F 56% 29.89 in 10.0 miles NNE 4.6 mph - N/A   Partly Cloudy
3:53 PM 45.0°F 28.9°F 53% 29.89 in 10.0 miles NE 4.6 mph - N/A   Scattered Clouds
4:53 PM 43.0°F 28.9°F 58% 29.90 in 10.0 miles North 4.6 mph - N/A   Clear
5:53 PM 39.0°F 30.0°F 70% 29.92 in 10.0 miles North 4.6 mph - N/A   Clear
6:53 PM 37.9°F 27.0°F 65% 29.92 in 10.0 miles North 5.8 mph - N/A   Clear
7:53 PM 37.0°F 26.1°F 65% 29.93 in 10.0 miles North 6.9 mph - N/A   Clear
8:53 PM 37.9°F 26.1°F 62% 29.94 in 10.0 miles North 8.1 mph - N/A   Clear
9:53 PM 37.9°F 28.0°F 68% 29.95 in 10.0 miles North 5.8 mph - N/A   Clear
10:53 PM 39.9°F 27.0°F 60% 29.95 in 10.0 miles NNE 4.6 mph - N/A   Clear
11:53 PM 39.0°F 28.9°F 67% 29.96 in 10.0 miles NNE 4.6 mph - N/A   Clear
Moon Phase
Nov. 09 Nov. 13 Nov. 20 Nov. 28 Dec. 06
Sunrise:07:06 AM (PST) Moon Rise:01:53 AM (PST)11/9
Sunset:04:41 PM (PST) Moon Set:02:13 PM (PST)11/9

Copyright © 2014 The Weather Underground, Inc.